H1 CPF 2 NER 2021 3 8 9 067 01 glonass131 H2 1301901 9131 39155 2021 3 8 0 0 0 2021 3 11 23 45 0 900 1 1 0 0 0 1 H9 10 0 59281 0.00000 0 -9217092.993 -7241745.899 -22605506.656 10 0 59281 900.00000 0 -6743227.721 -8607262.265 -23000934.892 10 0 59281 1800.00000 0 -4358485.380 -10160971.637 -22947569.479 10 0 59281 2700.00000 0 -2121408.338 -11863747.822 -22446690.655 10 0 59281 3600.00000 0 -82485.461 -13667078.925 -21508329.575 10 0 59281 4500.00000 0 1717725.811 -15514995.839 -20151050.523 10 0 59281 5400.00000 0 3250045.983 -17346329.057 -18401565.156 10 0 59281 6300.00000 0 4497630.356 -19097197.945 -16294187.968 10 0 59281 7200.00000 0 5456399.111 -20703626.992 -13870145.332 10 0 59281 8100.00000 0 6134926.130 -22104178.835 -11176753.174 10 0 59281 9000.00000 0 6553794.855 -23242493.681 -8266480.632 10 0 59281 9900.00000 0 6744451.752 -24069629.232 -5195919.143 10 0 59281 10800.00000 0 6747608.822 -24546104.180 -2024677.793 10 0 59281 11700.00000 0 6611264.981 -24643561.238 1185773.185 10 0 59281 12600.00000 0 6388431.473 -24345981.866 4373288.185 10 0 59281 13500.00000 0 6134658.190 -23650403.829 7476238.704 10 0 59281 14400.00000 0 5905465.335 -22567113.385 10434690.253 10 0 59281 15300.00000 0 5753788.058 -21119305.572 13191542.089 10 0 59281 16200.00000 0 5727540.591 -19342227.789 15693609.347 10 0 59281 17100.00000 0 5867400.934 -17281842.634 17892628.539 10 0 59281 18000.00000 0 6204907.717 -14993065.328 19746168.919 10 0 59281 18900.00000 0 6760947.892 -12537647.852 21218434.138 10 0 59281 19800.00000 0 7544697.932 -9981795.837 22280940.534 10 0 59281 20700.00000 0 8553062.768 -7393614.872 22913060.352 10 0 59281 21600.00000 0 9770636.680 -4840489.494 23102420.411 10 0 59281 22500.00000 0 11170189.342 -2386500.854 22845148.835 10 0 59281 23400.00000 0 12713658.977 -89987.776 22145964.740 10 0 59281 24300.00000 0 14353613.990 1998649.665 21018108.096 10 0 59281 25200.00000 0 16035125.200 3838814.197 19483109.469 10 0 59281 26100.00000 0 17697973.520 5401166.156 17570401.929 10 0 59281 27000.00000 0 19279103.594 6668608.347 15316780.154 10 0 59281 27900.00000 0 20715222.836 7636759.169 12765714.572 10 0 59281 28800.00000 0 21945438.227 8313892.915 9966531.449 10 0 59281 29700.00000 0 22913820.512 8720348.329 6973472.708 10 0 59281 30600.00000 0 23571787.310 8887428.833 3844652.166 10 0 59281 31500.00000 0 23880203.151 8855839.579 640927.751 10 0 59281 32400.00000 0 23811105.602 8673726.686 -2575288.471 10 0 59281 33300.00000 0 23348981.814 8394401.673 -5741258.580 10 0 59281 34200.00000 0 22491538.634 8073848.215 -8795159.978 10 0 59281 35100.00000 0 21249931.021 7768118.523 -11677313.398 10 0 59281 36000.00000 0 19648436.763 7530731.897 -14331371.507 10 0 59281 36900.00000 0 17723589.656 7410188.363 -16705442.509 10 0 59281 37800.00000 0 15522806.844 7447705.570 -18753124.593 10 0 59281 38700.00000 0 13102568.054 7675277.425 -20434429.101 10 0 59281 39600.00000 0 10526224.048 8114138.912 -21716572.885 10 0 59281 40500.00000 0 7861527.442 8773703.682 -22574623.489 10 0 59281 41400.00000 0 5177990.824 9651020.286 -22991984.252 10 0 59281 42300.00000 0 2544184.268 10730770.217 -22960710.082 10 0 59281 43200.00000 0 25086.292 11985807.376 -22481648.529 10 0 59281 44100.00000 0 -2320400.533 13378215.249 -21564404.568 10 0 59281 45000.00000 0 -4441665.699 14860835.829 -20227131.255 10 0 59281 45900.00000 0 -6298247.156 16379204.362 -18496152.006 10 0 59281 46800.00000 0 -7861252.307 17873807.027 -16405423.572 10 0 59281 47700.00000 0 -9114286.804 19282565.219 -13995851.919 10 0 59281 48600.00000 0 -10053855.522 20543441.130 -11314475.929 10 0 59281 49500.00000 0 -10689222.493 21597054.679 -8413536.177 10 0 59281 50400.00000 0 -11041739.279 22389201.954 -5349448.127 10 0 59281 51300.00000 0 -11143673.475 22873170.086 -2181700.538 10 0 59281 52200.00000 0 -11036589.583 23011752.549 1028299.103 10 0 59281 53100.00000 0 -10769352.697 22778881.818 4218409.512 10 0 59281 54000.00000 0 -10395840.590 22160812.692 7326948.349 10 0 59281 54900.00000 0 -9972461.241 21156808.362 10293870.474 10 0 59281 55800.00000 0 -9555580.149 19779302.030 13061910.017 10 0 59281 56700.00000 0 -9198964.911 18053528.328 15577665.813 10 0 59281 57600.00000 0 -8951353.184 16016640.363 17792611.070 10 0 59281 58500.00000 0 -8854244.639 13716348.906 19664009.687 10 0 59281 59400.00000 0 -8940008.035 11209139.325 21155723.572 10 0 59281 60300.00000 0 -9230381.549 8558138.595 22238897.190 10 0 59281 61200.00000 0 -9735428.442 5830718.643 22892507.561 10 0 59281 62100.00000 0 -10452991.785 3095932.724 23103770.111 10 0 59281 63000.00000 0 -11368671.892 421888.148 22868392.910 10 0 59281 63900.00000 0 -12456328.952 -2126838.388 22190674.054 10 0 59281 64800.00000 0 -13679092.200 -4491638.168 21083439.353 10 0 59281 65700.00000 0 -14990836.167 -6622061.236 19567819.866 10 0 59281 66600.00000 0 -16338065.212 -8477670.610 17672871.457 10 0 59281 67500.00000 0 -17662130.268 -10029483.163 15435041.281 10 0 59281 68400.00000 0 -18901687.323 -11260936.695 12897488.883 10 0 59281 69300.00000 0 -19995296.095 -12168341.741 10109272.661 10 0 59281 70200.00000 0 -20884050.511 -12760797.796 7124415.337 10 0 59281 71100.00000 0 -21514130.022 -13059575.951 4000864.957 10 0 59281 72000.00000 0 -21839163.022 -13096992.455 799370.845 10 0 59281 72900.00000 0 -21822300.565 -12914819.728 -2417703.771 10 0 59281 73800.00000 0 -21437910.098 -12562301.541 -5587608.689 10 0 59281 74700.00000 0 -20672814.581 -12093856.648 -8648447.855 10 0 59281 75600.00000 0 -19527021.600 -11566569.219 -11540408.607 10 0 59281 76500.00000 0 -18013908.847 -11037574.198 -14206952.852 10 0 59281 77400.00000 0 -16159856.015 -10561450.642 -16595944.442 10 0 59281 78300.00000 0 -14003337.098 -10187736.101 -18660688.574 10 0 59281 79200.00000 0 -11593510.695 -9958669.845 -20360860.928 10 0 59281 80100.00000 0 -8988367.730 -9907262.738 -21663306.902 10 0 59281 81000.00000 0 -6252515.118 -10055777.170 -22542694.389 10 0 59281 81900.00000 0 -3454689.399 -10414682.376 -22982007.051 10 0 59281 82800.00000 0 -665105.834 -10982129.591 -22972868.636 10 0 59281 83700.00000 0 2047245.060 -11743968.799 -22515692.773 10 0 59281 84600.00000 0 4617239.813 -12674305.319 -21619656.472 10 0 59281 85500.00000 0 6986092.579 -13736571.230 -20302499.290 10 0 59282 0.00000 0 9103551.434 -14885064.674 -18590153.792 10 0 59282 900.00000 0 10929730.011 -16066890.383 -16516215.937 10 0 59282 1800.00000 0 12436500.475 -17224217.838 -14121268.125 10 0 59282 2700.00000 0 13608391.434 -18296760.617 -11452068.804 10 0 59282 3600.00000 0 14442957.925 -19224371.768 -8560626.482 10 0 59282 4500.00000 0 14950610.336 -19949645.346 -5503177.100 10 0 59282 5400.00000 0 15153913.576 -20420415.017 -2339085.558 10 0 59282 6300.00000 0 15086389.006 -20592045.333 870306.809 10 0 59282 7200.00000 0 14790872.184 -20429420.550 4062866.251 10 0 59282 8100.00000 0 14317497.503 -19908548.943 7176859.515 10 0 59282 9000.00000 0 13721395.664 -19017716.841 10152133.374 10 0 59282 9900.00000 0 13060201.118 -17758145.482 12931258.980 10 0 59282 10800.00000 0 12391473.817 -16144124.263 15460620.568 10 0 59282 11700.00000 0 11770142.487 -14202615.352 17691429.274 10 0 59282 12600.00000 0 11246075.193 -11972346.100 19580644.423 10 0 59282 13500.00000 0 10861877.397 -9502426.138 21091786.517 10 0 59282 14400.00000 0 10651008.124 -6850545.068 22195628.073 10 0 59282 15300.00000 0 10636291.882 -4080823.382 22870750.436 10 0 59282 16200.00000 0 10828887.895 -1261403.008 23103956.852 10 0 59282 17100.00000 0 11227759.832 1538125.673 22890534.261 10 0 59282 18000.00000 0 11819669.049 4249356.637 22234358.438 10 0 59282 18900.00000 0 12579693.243 6807654.500 21147839.533 10 0 59282 19800.00000 0 13472251.050 9154589.293 19651707.444 10 0 59282 20700.00000 0 14452592.283 11240120.090 17774639.055 10 0 59282 21600.00000 0 15468694.085 13024437.494 15552732.110 10 0 59282 22500.00000 0 16463485.925 14479388.202 13028833.270 10 0 59282 23400.00000 0 17377311.894 15589421.312 10251730.958 10 0 59282 24300.00000 0 18150527.905 16352015.512 7275226.453 10 0 59282 25200.00000 0 18726124.597 16777567.612 4157099.678 10 0 59282 26100.00000 0 19052264.539 16888745.422 957988.900 10 0 59282 27000.00000 0 19084624.872 16719330.883 -2259794.002 10 0 59282 27900.00000 0 18788443.905 16312601.404 -5433489.051 10 0 59282 28800.00000 0 18140182.120 15719317.587 -8501129.160 10 0 59282 29700.00000 0 17128724.186 14995403.073 -11402770.560 10 0 59282 30600.00000 0 15756068.011 14199416.013 -14081686.469 10 0 59282 31500.00000 0 14037469.116 13389921.149 -16485498.217 10 0 59282 32400.00000 0 12001032.156 12622876.075 -18567219.578 10 0 59282 33300.00000 0 9686765.494 11949144.751 -20286191.896 10 0 59282 34200.00000 0 7145138.196 11412245.694 -21608890.195 10 0 59282 35100.00000 0 4435200.275 11046431.936 -22509583.580 10 0 59282 36000.00000 0 1622345.801 10875185.040 -22970836.663 10 0 59282 36900.00000 0 -1224186.258 10910187.259 -22983842.390 10 0 59282 37800.00000 0 -4033967.747 11150814.865 -22548580.516 10 0 59282 38700.00000 0 -6738081.722 11584172.989 -21673799.766 10 0 59282 39600.00000 0 -9271754.125 12185668.852 -20376825.476 10 0 59282 40500.00000 0 -11576807.054 12920097.200 -18683198.134 10 0 59282 41400.00000 0 -13603832.079 13743189.956 -16626151.549 10 0 59282 42300.00000 0 -15313994.375 14603562.625 -14245942.599 10 0 59282 43200.00000 0 -16680394.684 15444973.481 -11589047.175 10 0 59282 44100.00000 0 -17688935.044 16208798.860 -8707239.394 10 0 59282 45000.00000 0 -18338655.276 16836619.275 -5656573.232 10 0 59282 45900.00000 0 -18641529.620 17272807.083 -2496287.230 10 0 59282 46800.00000 0 -18621735.336 17467006.958 712345.951 10 0 59282 47700.00000 0 -18314426.889 17376405.558 3907202.613 10 0 59282 48600.00000 0 -17764069.587 16967696.087 7026501.099 10 0 59282 49500.00000 0 -17022404.243 16218656.584 10009982.561 10 0 59282 50400.00000 0 -16146129.135 15119277.084 12800057.605 10 0 59282 51300.00000 0 -15194396.526 13672389.574 15342898.218 10 0 59282 52200.00000 0 -14226227.977 11893775.053 17589455.717 10 0 59282 53100.00000 0 -13297955.451 9811743.361 19496386.947 10 0 59282 54000.00000 0 -12460793.632 7466202.637 21026872.906 10 0 59282 54900.00000 0 -11758643.227 4907255.707 22151315.830 10 0 59282 55800.00000 0 -11226215.452 2193379.702 22847902.774 10 0 59282 56700.00000 0 -10887554.820 -610738.241 23103025.886 10 0 59282 57600.00000 0 -10755021.318 -3436622.532 22911551.711 10 0 59282 58500.00000 0 -10828774.612 -6214590.643 22276934.056 10 0 59282 59400.00000 0 -11096782.703 -8876390.616 21211167.368 10 0 59282 60300.00000 0 -11535356.222 -11357787.859 19734579.914 10 0 59282 61200.00000 0 -12110188.145 -13600995.674 17875468.689 10 0 59282 62100.00000 0 -12777857.691 -15556849.739 15669580.685 10 0 59282 63000.00000 0 -13487737.724 -17186636.322 13159447.916 10 0 59282 63900.00000 0 -14184227.508 -18463497.365 10393586.674 10 0 59282 64800.00000 0 -14809218.320 -19373352.559 7425574.308 10 0 59282 65700.00000 0 -15304688.600 -19915298.113 4313019.827 10 0 59282 66600.00000 0 -15615318.764 -20101463.579 1116447.413 10 0 59282 67500.00000 0 -15691013.923 -19956331.078 -2101885.636 10 0 59282 68400.00000 0 -15489225.624 -19515544.255 -5279212.953 10 0 59282 69300.00000 0 -14976971.606 -18824256.512 -8353499.906 10 0 59282 70200.00000 0 -14132464.895 -17935088.333 -11264675.157 10 0 59282 71100.00000 0 -12946280.032 -16905780.857 -13955826.720 10 0 59282 72000.00000 0 -11422004.176 -15796646.441 -16374336.770 10 0 59282 72900.00000 0 -9576343.016 -14667926.024 -18472930.753 10 0 59282 73800.00000 0 -7438675.214 -13577167.268 -20210618.392 10 0 59282 74700.00000 0 -5050073.115 -12576736.547 -21553506.544 10 0 59282 75600.00000 0 -2461830.630 -11711571.733 -22475467.140 10 0 59282 76500.00000 0 266439.603 -11017272.031 -22958646.703 10 0 59282 77400.00000 0 3069059.077 -10518606.050 -22993807.678 10 0 59282 78300.00000 0 5876790.969 -10228500.860 -22580495.616 10 0 59282 79200.00000 0 8619496.509 -10147553.660 -21727030.045 10 0 59282 80100.00000 0 11228828.324 -10264084.964 -20450320.658 10 0 59282 81000.00000 0 13640848.014 -10554728.886 -18775514.023 10 0 59282 81900.00000 0 15798459.034 -10985533.106 -16735479.415 10 0 59282 82800.00000 0 17653554.221 -11513519.591 -14370145.538 10 0 59282 83700.00000 0 19168790.077 -12088637.854 -11725702.667 10 0 59282 84600.00000 0 20318916.009 -12656026.299 -8853687.147 10 0 59282 85500.00000 0 21091605.760 -13158484.786 -5809967.351 10 0 59283 0.00000 0 21487759.450 -13539053.257 -2653651.715 10 0 59283 900.00000 0 21521266.644 -13743587.144 554059.783 10 0 59283 1800.00000 0 21218243.795 -13723222.273 3751057.233 10 0 59283 2700.00000 0 20615779.890 -13436624.724 6875514.162 10 0 59283 3600.00000 0 19760245.665 -12851933.886 9867069.368 10 0 59283 4500.00000 0 18705237.880 -11948317.140 12667975.746 10 0 59283 5400.00000 0 17509245.455 -10717072.681 15224195.383 10 0 59283 6300.00000 0 16233134.694 -9162234.951 17486421.597 10 0 59283 7200.00000 0 14937557.744 -7300657.756 19411010.059 10 0 59283 8100.00000 0 13680391.030 -5161571.215 20960803.060 10 0 59283 9000.00000 0 12514308.760 -2785629.859 22105832.884 10 0 59283 9900.00000 0 11484590.906 -223489.686 22823892.192 10 0 59283 10800.00000 0 10627255.414 2466029.280 23100961.526 10 0 59283 11700.00000 0 9967591.353 5218121.664 22931486.167 10 0 59283 12600.00000 0 9519153.633 7964429.489 22318496.771 10 0 59283 13500.00000 0 9283261.390 10635631.336 21273570.607 10 0 59283 14400.00000 0 9249021.876 13164083.441 19816632.587 10 0 59283 15300.00000 0 9393880.378 15486405.357 17975597.887 10 0 59283 16200.00000 0 9684675.061 17545904.297 15785860.626 10 0 59283 17100.00000 0 10079154.652 19294737.953 13289635.898 10 0 59283 18000.00000 0 10527897.179 20695725.309 10535165.428 10 0 59283 18900.00000 0 10976550.639 21723728.804 7575800.073 10 0 59283 19800.00000 0 11368302.051 22366548.343 4468975.241 10 0 59283 20700.00000 0 11646470.740 22625287.602 1275098.259 10 0 59283 21600.00000 0 11757115.388 22514175.237 -1943630.948 10 0 59283 22500.00000 0 11651542.763 22059846.732 -5124442.369 10 0 59283 23400.00000 0 11288609.452 21300115.862 -8205236.458 10 0 59283 24300.00000 0 10636716.059 20282287.078 -11125816.732 10 0 59283 25200.00000 0 9675406.182 19061080.285 -13829088.190 10 0 59283 26100.00000 0 8396499.303 17696256.659 -16262195.730 10 0 59283 27000.00000 0 6804706.864 16250047.395 -18377578.068 10 0 59283 27900.00000 0 4917703.192 14784495.959 -20133914.603 10 0 59283 28800.00000 0 2765646.806 13358828.172 -21496945.073 10 0 59283 29700.00000 0 390171.448 12026963.023 -22440145.005 10 0 59283 30600.00000 0 -2157110.845 10835270.625 -22945243.349 10 0 59283 31500.00000 0 -4816531.199 9820672.672 -23002572.271 10 0 59283 32400.00000 0 -7522628.504 9009165.391 -22611243.003 10 0 59283 33300.00000 0 -10206661.336 8414826.389 -21779145.394 10 0 59283 34200.00000 0 -12799261.115 8039345.613 -20522772.596 10 0 59283 35100.00000 0 -15233115.019 7872097.897 -18866875.955 10 0 59283 36000.00000 0 -17445566.441 7890751.373 -16843958.533 10 0 59283 36900.00000 0 -19381024.790 8062383.164 -14493618.875 10 0 59283 37800.00000 0 -20993085.095 8345052.497 -11861759.418 10 0 59283 38700.00000 0 -22246270.694 8689762.277 -8999676.386 10 0 59283 39600.00000 0 -23117328.376 9042724.267 -5963050.111 10 0 59283 40500.00000 0 -23596024.610 9347830.809 -2810856.346 10 0 59283 41400.00000 0 -23685412.475 9549227.925 395779.794 10 0 59283 42300.00000 0 -23401560.993 9593881.172 3594764.741 10 0 59283 43200.00000 0 -22772760.871 9434026.502 6724229.626 10 0 59283 44100.00000 0 -21838242.041 9029403.819 9723713.293 10 0 59283 45000.00000 0 -20646458.211 8349180.454 12535313.290 10 0 59283 45900.00000 0 -19253010.909 7373484.962 15104784.109 10 0 59283 46800.00000 0 -17718299.749 6094487.915 17382563.266 10 0 59283 47700.00000 0 -16104996.288 4516985.031 19324707.288 10 0 59283 48600.00000 0 -14475445.464 2658458.262 20893721.569 10 0 59283 49500.00000 0 -12889101.078 548611.483 22059269.979 10 0 59283 50400.00000 0 -11400100.184 -1771601.342 22798752.017 10 0 59283 51300.00000 0 -10055075.390 -4251417.354 23097737.528 10 0 59283 52200.00000 0 -8891294.478 -6832118.384 22950251.102 10 0 59283 53100.00000 0 -7935203.705 -9449223.058 22358900.469 10 0 59283 54000.00000 0 -7201434.946 -12034929.834 21334845.614 10 0 59283 54900.00000 0 -6692318.319 -14520712.681 19897607.647 10 0 59283 55800.00000 0 -6397921.569 -16839964.186 18074719.132 10 0 59283 56700.00000 0 -6296615.998 -18930578.185 15901220.187 10 0 59283 57600.00000 0 -6356147.008 -20737365.464 13419007.518 10 0 59283 58500.00000 0 -6535166.226 -22214201.876 10676046.515 10 0 59283 59400.00000 0 -6785162.371 -23325818.383 7725459.480 10 0 59283 60300.00000 0 -7052710.666 -24049156.559 4624505.914 10 0 59283 61200.00000 0 -7281946.284 -24374230.617 1433473.754 10 0 59283 62100.00000 0 -7417156.835 -24304457.463 -1785497.176 10 0 59283 63000.00000 0 -7405382.862 -23856438.705 -4969636.143 10 0 59283 63900.00000 0 -7198914.094 -23059201.955 -8056781.755 10 0 59283 64800.00000 0 -6757572.919 -21952932.251 -10986615.572 10 0 59283 65700.00000 0 -6050685.175 -20587246.696 -13701862.822 10 0 59283 66600.00000 0 -5058651.589 -19019085.513 -16149434.343 10 0 59283 67500.00000 0 -3774050.311 -17310309.631 -18281485.206 10 0 59283 68400.00000 0 -2202221.338 -15525107.769 -20056367.319 10 0 59283 69300.00000 0 -361306.265 -13727324.299 -21439455.754 10 0 59283 70200.00000 0 1718259.536 -11977822.380 -22403831.639 10 0 59283 71100.00000 0 3994781.431 -10331994.977 -22930807.827 10 0 59283 72000.00000 0 6416822.972 -8837529.588 -23010287.139 10 0 59283 72900.00000 0 8925141.938 -7532520.964 -22640946.886 10 0 59283 73800.00000 0 11454962.843 -6444010.601 -21830247.116 10 0 59283 74700.00000 0 13938489.605 -5587013.070 -20594263.843 10 0 59283 75600.00000 0 16307552.381 -4964067.907 -18957352.134 10 0 59283 76500.00000 0 18496277.327 -4565333.183 -16951647.325 10 0 59283 77400.00000 0 20443667.557 -4369213.725 -14616415.831 10 0 59283 78300.00000 0 22095987.995 -4343494.284 -11997269.832 10 0 59283 79200.00000 0 23408855.608 -4446926.823 -9145262.546 10 0 59283 80100.00000 0 24348949.313 -4631202.341 -6115882.995 10 0 59283 81000.00000 0 24895270.365 -4843221.898 -2967970.712 10 0 59283 81900.00000 0 25039903.001 -5027569.586 237427.988 10 0 59283 82800.00000 0 24788246.223 -5129082.433 3438239.695 10 0 59283 83700.00000 0 24158709.540 -5095408.824 6572556.948 10 0 59283 84600.00000 0 23181887.648 -4879448.182 9579822.238 10 0 59283 85500.00000 0 21899250.192 -4441570.211 12401981.044 10 0 59284 0.00000 0 20361402.400 -3751521.630 14984583.092 10 0 59284 900.00000 0 18625989.286 -2789940.998 17277812.628 10 0 59284 1800.00000 0 16755330.556 -1549420.345 19237428.954 10 0 59284 2700.00000 0 14813883.367 -35067.348 20825602.065 10 0 59284 3600.00000 0 12865636.718 1735453.580 22011628.471 10 0 59284 4500.00000 0 10971543.999 3732405.497 22772515.124 10 0 59284 5400.00000 0 9187098.092 5914969.522 23093421.353 10 0 59284 6300.00000 0 7560147.830 8232703.351 22967950.819 10 0 59284 7200.00000 0 6129044.966 10627409.999 22398287.677 10 0 59284 8100.00000 0 4921197.680 13035342.445 21395173.570 10 0 59284 9000.00000 0 3952090.404 15389655.869 19977724.373 10 0 59284 9900.00000 0 3224811.227 17623008.351 18173088.255 10 0 59284 10800.00000 0 2730107.527 19670204.196 16015949.242 10 0 59284 11700.00000 0 2446968.898 21470771.240 13547883.291 10 0 59284 12600.00000 0 2343714.632 22971365.070 10816576.868 10 0 59284 13500.00000 0 2379541.655 24127899.265 7874920.927 10 0 59284 14400.00000 0 2506469.015 24907311.150 4779996.116 10 0 59284 15300.00000 0 2671597.668 25288886.922 1591967.930 10 0 59284 16200.00000 0 2819590.008 25265088.102 -1627087.021 10 0 59284 17100.00000 0 2895263.354 24841842.004 -4814400.344 10 0 59284 18000.00000 0 2846185.874 24038281.666 -7907751.753 10 0 59284 18900.00000 0 2625162.501 22885944.448 -10846703.605 10 0 59284 19800.00000 0 2192502.568 21427461.975 -13573803.842 10 0 59284 20700.00000 0 1517969.925 19714796.421 -16035731.417 10 0 59284 21600.00000 0 582329.879 17807098.019 -18184359.596 10 0 59284 22500.00000 0 -621575.316 15768275.244 -19977714.313 10 0 59284 23400.00000 0 -2088270.027 13664381.680 -21380807.184 10 0 59284 24300.00000 0 -3799632.945 11560931.316 -22366325.841 10 0 59284 25200.00000 0 -5725430.198 9520256.827 -22915167.636 10 0 59284 26100.00000 0 -7824371.519 7599023.103 -23016806.313 10 0 59284 27000.00000 0 -10045644.547 5846001.072 -22669485.165 10 0 59284 27900.00000 0 -12330861.987 4300194.974 -21880233.948 10 0 59284 28800.00000 0 -14616338.714 2989400.721 -20664710.624 10 0 59284 29700.00000 0 -16835602.365 1929253.870 -19046872.653 10 0 59284 30600.00000 0 -18922031.363 1122804.565 -17058485.930 10 0 59284 31500.00000 0 -20811509.393 560634.219 -14738482.706 10 0 59284 32400.00000 0 -22444985.281 221505.549 -12132182.616 10 0 59284 33300.00000 0 -23770831.767 73515.213 -9290393.439 10 0 59284 34200.00000 0 -24746905.594 75697.334 -6268410.351 10 0 59284 35100.00000 0 -25342224.457 180007.622 -3124934.083 10 0 59284 36000.00000 0 -25538192.725 333602.377 79070.448 10 0 59284 36900.00000 0 -25329326.981 481314.959 3281552.595 10 0 59284 37800.00000 0 -24723453.361 568224.767 6420568.905 10 0 59284 38700.00000 0 -23741370.615 542210.541 9435468.098 10 0 59284 39600.00000 0 -22415994.665 356381.240 12268046.124 10 0 59284 40500.00000 0 -20791021.582 -28716.725 14863650.487 10 0 59284 41400.00000 0 -18919165.112 -643207.446 17172214.258 10 0 59284 42300.00000 0 -16860041.964 -1506386.903 19149201.678 10 0 59284 43200.00000 0 -14677791.794 -2625679.857 20756449.143 10 0 59284 44100.00000 0 -12438529.167 -3996095.742 21962887.250 10 0 59284 45000.00000 0 -10207731.313 -5600206.812 22745131.482 10 0 59284 45900.00000 0 -8047667.748 -7408650.830 23087931.366 10 0 59284 46800.00000 0 -6014976.143 -9381139.488 22984469.965 10 0 59284 47700.00000 0 -4158483.064 -11467933.232 22436507.855 10 0 59284 48600.00000 0 -2517358.518 -13611724.307 21454368.011 10 0 59284 49500.00000 0 -1119680.062 -15749852.929 20056760.449 10 0 59284 50400.00000 0 18533.914 -17816767.373 18270448.032 10 0 59284 51300.00000 0 893780.982 -19746628.122 16129757.500 10 0 59284 52200.00000 0 1515001.468 -21475949.373 13675942.591 10 0 59284 53100.00000 0 1902976.805 -22946168.478 10956409.102 10 0 59284 54000.00000 0 2089223.229 -24106035.839 8023814.653 10 0 59284 54900.00000 0 2114425.925 -24913724.115 4935058.819 10 0 59284 55800.00000 0 2026478.631 -25338566.345 1750182.249 10 0 59284 56700.00000 0 1878211.151 -25362347.532 -1468804.222 10 0 59284 57600.00000 0 1724901.316 -24980092.581 -4659137.240 10 0 59284 58500.00000 0 1621677.973 -24200314.706 -7758540.437 10 0 59284 59400.00000 0 1620927.077 -23044711.523 -10706459.851 10 0 59284 60300.00000 0 1769813.428 -21547319.854 -13445269.061 10 0 59284 61200.00000 0 2108026.044 -19753163.975 -15921418.034 10 0 59284 62100.00000 0 2665845.757 -17716454.123 -18086501.022 10 0 59284 63000.00000 0 3462619.681 -15498411.739 -19898220.583 10 0 59284 63900.00000 0 4505709.461 -13164814.239 -21321227.167 10 0 59284 64800.00000 0 5789959.517 -10783364.085 -22327816.838 10 0 59284 65700.00000 0 7297708.790 -8420994.274 -22898472.945 10 0 59284 66600.00000 0 8999345.768 -6141224.737 -23022241.206 10 0 59284 67500.00000 0 10854383.096 -4001681.395 -22696931.501 10 0 59284 68400.00000 0 12813005.751 -2051881.954 -21929143.472 10 0 59284 69300.00000 0 14818026.509 -331380.665 -20734116.799 10 0 59284 70200.00000 0 16807165.338 1131651.827 -19135410.705 10 0 59284 71100.00000 0 18715555.924 2321356.302 -17164420.618 10 0 59284 72000.00000 0 20478373.249 3234584.521 -14859743.182 10 0 59284 72900.00000 0 22033471.656 3880757.138 -12266403.619 10 0 59284 73800.00000 0 23323922.888 4281189.607 -9434961.946 10 0 59284 74700.00000 0 24300348.370 4467917.863 -6420516.770 10 0 59284 75600.00000 0 24922949.239 4482076.417 -3281626.932 10 0 59284 76500.00000 0 25163150.711 4371899.810 -79172.592 10 0 59284 77400.00000 0 25004793.894 4190433.483 3124821.883 10 0 59284 78300.00000 0 24444827.249 3993051.682 6268380.608 10 0 59284 79200.00000 0 23493470.781 3834887.306 9290762.006 10 0 59284 80100.00000 0 22173847.767 3768281.551 12133615.796 10 0 59284 81000.00000 0 20521100.662 3840359.755 14742090.254 10 0 59284 81900.00000 0 18581028.551 4090834.180 17065870.107 10 0 59284 82800.00000 0 16408302.826 4550124.604 19060126.884 10 0 59284 83700.00000 0 14064334.385 5237874.514 20686365.418 10 0 59284 84600.00000 0 11614879.415 6161924.344 21913152.065 10 0 59284 85500.00000 0 9127481.097 7317784.672 22716712.126 99